Year,Month,Day,Hour,Minute,Value (Times are PST for temperature in C)
2014,07,07,00,00,15.40
2014,07,07,00,01,15.40
2014,07,07,00,02,15.40
2014,07,07,00,03,15.30
2014,07,07,00,04,15.30
2014,07,07,00,05,15.30
2014,07,07,00,06,15.30
2014,07,07,00,07,15.30
2014,07,07,00,08,15.30
2014,07,07,00,09,15.30
2014,07,07,00,10,15.30
2014,07,07,00,11,15.30
2014,07,07,00,12,15.20
2014,07,07,00,13,15.20
2014,07,07,00,14,15.20
2014,07,07,00,15,15.20
2014,07,07,00,16,15.20
2014,07,07,00,17,15.20
2014,07,07,00,18,15.20
2014,07,07,00,19,15.20
2014,07,07,00,20,15.20
2014,07,07,00,21,15.20
2014,07,07,00,22,15.20
2014,07,07,00,23,15.20
2014,07,07,00,24,15.20
2014,07,07,00,25,15.20
2014,07,07,00,26,15.20
2014,07,07,00,27,15.20
2014,07,07,00,28,15.20
2014,07,07,00,29,15.10
2014,07,07,00,30,15.10
2014,07,07,00,31,15.10
2014,07,07,00,32,15.10
2014,07,07,00,33,15.10
2014,07,07,00,34,15.10
2014,07,07,00,35,15.10
2014,07,07,00,36,15.00
2014,07,07,00,37,15.00
2014,07,07,00,38,15.00
2014,07,07,00,39,15.00
2014,07,07,00,40,14.90
2014,07,07,00,41,14.90
2014,07,07,00,42,14.90
2014,07,07,00,43,14.90
2014,07,07,00,44,14.90
2014,07,07,00,45,14.90
2014,07,07,00,46,14.90
2014,07,07,00,47,14.90
2014,07,07,00,48,14.90
2014,07,07,00,49,14.90
2014,07,07,00,50,14.90
2014,07,07,00,51,14.90
2014,07,07,00,52,14.90
2014,07,07,00,53,14.90
2014,07,07,00,54,14.90
2014,07,07,00,55,14.90
2014,07,07,00,56,14.80
2014,07,07,00,57,14.80
2014,07,07,00,58,14.80
2014,07,07,00,59,14.80
2014,07,07,01,00,14.80
2014,07,07,01,01,14.80
2014,07,07,01,02,14.80
2014,07,07,01,03,14.80
2014,07,07,01,04,14.80
2014,07,07,01,05,14.80
2014,07,07,01,06,14.80
2014,07,07,01,07,14.80
2014,07,07,01,08,14.80
2014,07,07,01,09,14.80
2014,07,07,01,10,14.80
2014,07,07,01,11,14.80
2014,07,07,01,12,14.80
2014,07,07,01,13,14.80
2014,07,07,01,14,14.80
2014,07,07,01,15,14.80
2014,07,07,01,16,14.80
2014,07,07,01,17,14.80
2014,07,07,01,18,14.80
2014,07,07,01,19,14.80
2014,07,07,01,20,14.80
2014,07,07,01,21,14.90
2014,07,07,01,22,14.90
2014,07,07,01,23,14.90
2014,07,07,01,24,14.90
2014,07,07,01,25,14.90
2014,07,07,01,26,14.90
2014,07,07,01,27,14.90
2014,07,07,01,28,14.90
2014,07,07,01,29,14.90
2014,07,07,01,30,15.00
2014,07,07,01,31,15.00
2014,07,07,01,32,15.00
2014,07,07,01,33,15.00
2014,07,07,01,34,15.00
2014,07,07,01,35,15.00
2014,07,07,01,36,15.00
2014,07,07,01,37,15.00
2014,07,07,01,38,15.00
2014,07,07,01,39,15.00
2014,07,07,01,40,15.10
2014,07,07,01,41,15.10
2014,07,07,01,42,15.10
2014,07,07,01,43,15.10
2014,07,07,01,44,15.20
2014,07,07,01,45,15.20
2014,07,07,01,46,15.20
2014,07,07,01,47,15.20
2014,07,07,01,48,15.20
2014,07,07,01,49,15.20
2014,07,07,01,50,15.20
2014,07,07,01,51,15.30
2014,07,07,01,52,15.30
2014,07,07,01,53,15.30
2014,07,07,01,54,15.30
2014,07,07,01,55,15.30
2014,07,07,01,56,15.30
2014,07,07,01,57,15.30
2014,07,07,01,58,15.30
2014,07,07,01,59,15.30
2014,07,07,02,00,15.30
2014,07,07,02,01,15.30
2014,07,07,02,02,15.30
2014,07,07,02,03,15.30
2014,07,07,02,04,15.30
2014,07,07,02,05,15.20
2014,07,07,02,06,15.20
2014,07,07,02,07,15.20
2014,07,07,02,08,15.20
2014,07,07,02,09,15.20
2014,07,07,02,10,15.20
2014,07,07,02,11,15.20
2014,07,07,02,12,15.20
2014,07,07,02,13,15.20
2014,07,07,02,14,15.20
2014,07,07,02,15,15.20
2014,07,07,02,16,15.20
2014,07,07,02,17,15.20
2014,07,07,02,18,15.20
2014,07,07,02,19,15.20
2014,07,07,02,20,15.20
2014,07,07,02,21,15.20
2014,07,07,02,22,15.20
2014,07,07,02,23,15.10
2014,07,07,02,24,15.10
2014,07,07,02,25,15.10
2014,07,07,02,26,15.10
2014,07,07,02,27,15.10
2014,07,07,02,28,15.10
2014,07,07,02,29,15.00
2014,07,07,02,30,15.00
2014,07,07,02,31,15.00
2014,07,07,02,32,15.00
2014,07,07,02,33,15.00
2014,07,07,02,34,15.00
2014,07,07,02,35,15.00
2014,07,07,02,36,14.90
2014,07,07,02,37,14.90
2014,07,07,02,38,14.90
2014,07,07,02,39,14.90
2014,07,07,02,40,14.90
2014,07,07,02,41,14.90
2014,07,07,02,42,14.90
2014,07,07,02,43,14.90
2014,07,07,02,44,14.90
2014,07,07,02,45,14.90
2014,07,07,02,46,14.90
2014,07,07,02,47,14.90
2014,07,07,02,48,14.90
2014,07,07,02,49,14.90
2014,07,07,02,50,14.90
2014,07,07,02,51,14.90
2014,07,07,02,52,14.90
2014,07,07,02,53,14.90
2014,07,07,02,54,14.90
2014,07,07,02,55,14.90
2014,07,07,02,56,14.90
2014,07,07,02,57,15.00
2014,07,07,02,58,15.00
2014,07,07,02,59,15.00
2014,07,07,03,00,15.10
2014,07,07,03,01,15.10
2014,07,07,03,02,15.20
2014,07,07,03,03,15.20
2014,07,07,03,04,15.30
2014,07,07,03,05,15.30
2014,07,07,03,06,15.30
2014,07,07,03,07,15.30
2014,07,07,03,08,15.40
2014,07,07,03,09,15.40
2014,07,07,03,10,15.40
2014,07,07,03,11,15.40
2014,07,07,03,12,15.40
2014,07,07,03,13,15.40
2014,07,07,03,14,15.40
2014,07,07,03,15,15.40
2014,07,07,03,16,15.40
2014,07,07,03,17,15.40
2014,07,07,03,18,15.40
2014,07,07,03,19,15.40
2014,07,07,03,20,15.40
2014,07,07,03,21,15.40
2014,07,07,03,22,15.40
2014,07,07,03,23,15.40
2014,07,07,03,24,15.40
2014,07,07,03,25,15.50
2014,07,07,03,26,15.50
2014,07,07,03,27,15.50
2014,07,07,03,28,15.50
2014,07,07,03,29,15.50
2014,07,07,03,30,15.50
2014,07,07,03,31,15.50
2014,07,07,03,32,15.50
2014,07,07,03,33,15.50
2014,07,07,03,34,15.50
2014,07,07,03,35,15.50
2014,07,07,03,36,15.50
2014,07,07,03,37,15.50
2014,07,07,03,38,15.50
2014,07,07,03,39,15.50
2014,07,07,03,40,15.50
2014,07,07,03,41,15.50
2014,07,07,03,42,15.50
2014,07,07,03,43,15.50
2014,07,07,03,44,15.50
2014,07,07,03,45,15.50
2014,07,07,03,46,15.50
2014,07,07,03,47,15.50
2014,07,07,03,48,15.50
2014,07,07,03,49,15.50
2014,07,07,03,50,15.60
2014,07,07,03,51,15.60
2014,07,07,03,52,15.60
2014,07,07,03,53,15.60
2014,07,07,03,54,15.60
2014,07,07,03,55,15.60
2014,07,07,03,56,15.60
2014,07,07,03,57,15.60
2014,07,07,03,58,15.60
2014,07,07,03,59,15.60
2014,07,07,04,00,15.60
2014,07,07,04,01,15.60
2014,07,07,04,02,15.60
2014,07,07,04,03,15.60
2014,07,07,04,04,15.60
2014,07,07,04,05,15.50
2014,07,07,04,06,15.50
2014,07,07,04,07,15.50
2014,07,07,04,08,15.50
2014,07,07,04,09,15.50
2014,07,07,04,10,15.50
2014,07,07,04,11,15.60
2014,07,07,04,12,15.60
2014,07,07,04,13,15.60
2014,07,07,04,14,15.50
2014,07,07,04,15,15.60
2014,07,07,04,16,15.60
2014,07,07,04,17,15.60
2014,07,07,04,18,15.60
2014,07,07,04,19,15.60
2014,07,07,04,20,15.60
2014,07,07,04,21,15.60
2014,07,07,04,22,15.60
2014,07,07,04,23,15.60
2014,07,07,04,24,15.60
2014,07,07,04,25,15.60
2014,07,07,04,26,15.60
2014,07,07,04,27,15.60
2014,07,07,04,28,15.60
2014,07,07,04,29,15.60
2014,07,07,04,30,15.60
2014,07,07,04,31,15.60
2014,07,07,04,32,15.60
2014,07,07,04,33,15.60
2014,07,07,04,34,15.60
2014,07,07,04,35,15.70
2014,07,07,04,36,15.70
2014,07,07,04,37,15.70
2014,07,07,04,38,15.70
2014,07,07,04,39,15.70
2014,07,07,04,40,15.70
2014,07,07,04,41,15.70
2014,07,07,04,42,15.70
2014,07,07,04,43,15.70
2014,07,07,04,44,15.70
2014,07,07,04,45,15.70
2014,07,07,04,46,15.70
2014,07,07,04,47,15.70
2014,07,07,04,48,15.70
2014,07,07,04,49,15.70
2014,07,07,04,50,15.70
2014,07,07,04,51,15.70
2014,07,07,04,52,15.70
2014,07,07,04,53,15.70
2014,07,07,04,54,15.70
2014,07,07,04,55,15.80
2014,07,07,04,56,15.70
2014,07,07,04,57,15.70
2014,07,07,04,58,15.70
2014,07,07,04,59,15.70
2014,07,07,05,00,15.70
2014,07,07,05,01,15.70
2014,07,07,05,02,15.70
2014,07,07,05,03,15.70
2014,07,07,05,04,15.70
2014,07,07,05,05,15.70
2014,07,07,05,06,15.70
2014,07,07,05,07,15.70
2014,07,07,05,08,15.70
2014,07,07,05,09,15.70
2014,07,07,05,10,15.70
2014,07,07,05,11,15.70
2014,07,07,05,12,15.70
2014,07,07,05,13,15.70
2014,07,07,05,14,15.70
2014,07,07,05,15,15.70
2014,07,07,05,16,15.70
2014,07,07,05,17,15.70
2014,07,07,05,18,15.70
2014,07,07,05,19,15.70
2014,07,07,05,20,15.70
2014,07,07,05,21,15.70
2014,07,07,05,22,15.70
2014,07,07,05,23,15.70
2014,07,07,05,24,15.70
2014,07,07,05,25,15.70
2014,07,07,05,26,15.70
2014,07,07,05,27,15.70
2014,07,07,05,28,15.70
2014,07,07,05,29,15.70
2014,07,07,05,30,15.80
2014,07,07,05,31,15.80
2014,07,07,05,32,15.80
2014,07,07,05,33,15.80
2014,07,07,05,34,15.80
2014,07,07,05,35,15.80
2014,07,07,05,36,15.80
2014,07,07,05,37,15.80
2014,07,07,05,38,15.80
2014,07,07,05,39,15.80
2014,07,07,05,40,15.80
2014,07,07,05,41,15.80
2014,07,07,05,42,15.80
2014,07,07,05,43,15.80
2014,07,07,05,44,15.80
2014,07,07,05,45,15.80
2014,07,07,05,46,15.80
2014,07,07,05,47,15.80
2014,07,07,05,48,15.80
2014,07,07,05,49,15.90
2014,07,07,05,50,15.90
2014,07,07,05,51,15.90
2014,07,07,05,52,15.90
2014,07,07,05,53,15.90
2014,07,07,05,54,15.90
2014,07,07,05,55,15.90
2014,07,07,05,56,15.90
2014,07,07,05,57,15.90
2014,07,07,05,58,15.90
2014,07,07,05,59,15.90
2014,07,07,06,00,15.90
2014,07,07,06,01,15.90
2014,07,07,06,02,15.90
2014,07,07,06,03,15.90
2014,07,07,06,04,15.90
2014,07,07,06,05,16.00
2014,07,07,06,06,16.00
2014,07,07,06,07,16.00
2014,07,07,06,08,16.00
2014,07,07,06,09,16.00
2014,07,07,06,10,16.00
2014,07,07,06,11,16.00
2014,07,07,06,12,16.00
2014,07,07,06,13,16.00
2014,07,07,06,14,16.00
2014,07,07,06,15,16.10
2014,07,07,06,16,16.10
2014,07,07,06,17,16.10
2014,07,07,06,18,16.10
2014,07,07,06,19,16.10
2014,07,07,06,20,16.10
2014,07,07,06,21,16.10
2014,07,07,06,22,16.10
2014,07,07,06,23,16.10
2014,07,07,06,24,16.10
2014,07,07,06,25,16.10
2014,07,07,06,26,16.10
2014,07,07,06,27,16.10
2014,07,07,06,28,16.10
2014,07,07,06,29,16.10
2014,07,07,06,30,16.10
2014,07,07,06,31,16.10
2014,07,07,06,32,16.10
2014,07,07,06,33,16.10
2014,07,07,06,34,16.10
2014,07,07,06,35,16.10
2014,07,07,06,36,16.10
2014,07,07,06,37,16.10
2014,07,07,06,38,16.10
2014,07,07,06,39,16.10
2014,07,07,06,40,16.10
2014,07,07,06,41,16.10
2014,07,07,06,42,16.10
2014,07,07,06,43,16.20
2014,07,07,06,44,16.20
2014,07,07,06,45,16.20
2014,07,07,06,46,16.20
2014,07,07,06,47,16.20
2014,07,07,06,48,16.20
2014,07,07,06,49,16.20
2014,07,07,06,50,16.20
2014,07,07,06,51,16.20
2014,07,07,06,52,16.20
2014,07,07,06,53,16.20
2014,07,07,06,54,16.20
2014,07,07,06,55,16.20
2014,07,07,06,56,16.20
2014,07,07,06,57,16.20
2014,07,07,06,58,16.20
2014,07,07,06,59,16.20
2014,07,07,07,00,16.20
2014,07,07,07,01,16.20
2014,07,07,07,02,16.30
2014,07,07,07,03,16.30
2014,07,07,07,04,16.30
2014,07,07,07,05,16.30
2014,07,07,07,06,16.30
2014,07,07,07,07,16.30
2014,07,07,07,08,16.30
2014,07,07,07,09,16.30
2014,07,07,07,10,16.30
2014,07,07,07,11,16.30
2014,07,07,07,12,16.40
2014,07,07,07,13,16.40
2014,07,07,07,14,16.40
2014,07,07,07,15,16.40
2014,07,07,07,16,16.40
2014,07,07,07,17,16.40
2014,07,07,07,18,16.40
2014,07,07,07,19,16.40
2014,07,07,07,20,16.40
2014,07,07,07,21,16.40
2014,07,07,07,22,16.40
2014,07,07,07,23,16.40
2014,07,07,07,24,16.50
2014,07,07,07,25,16.50
2014,07,07,07,26,16.50
2014,07,07,07,27,16.50
2014,07,07,07,28,16.60
2014,07,07,07,29,16.60
2014,07,07,07,30,16.60
2014,07,07,07,31,16.60
2014,07,07,07,32,16.60
2014,07,07,07,33,16.60
2014,07,07,07,34,16.60
2014,07,07,07,35,16.70
2014,07,07,07,36,16.70
2014,07,07,07,37,16.70
2014,07,07,07,38,16.70
2014,07,07,07,39,16.70
2014,07,07,07,40,16.80
2014,07,07,07,41,16.80
2014,07,07,07,42,16.80
2014,07,07,07,43,16.80
2014,07,07,07,44,16.80
2014,07,07,07,45,16.90
2014,07,07,07,46,16.90
2014,07,07,07,47,16.90
2014,07,07,07,48,17.00
2014,07,07,07,49,17.00
2014,07,07,07,50,17.10
2014,07,07,07,51,17.10
2014,07,07,07,52,17.10
2014,07,07,07,53,17.20
2014,07,07,07,54,17.20
2014,07,07,07,55,17.20
2014,07,07,07,56,17.30
2014,07,07,07,57,17.30
2014,07,07,07,58,17.30
2014,07,07,07,59,17.30
2014,07,07,08,00,17.40
2014,07,07,08,01,17.40
2014,07,07,08,02,17.40
2014,07,07,08,03,17.50
2014,07,07,08,04,17.50
2014,07,07,08,05,17.60
2014,07,07,08,06,17.60
2014,07,07,08,07,17.70
2014,07,07,08,08,17.70
2014,07,07,08,09,17.70
2014,07,07,08,10,17.80
2014,07,07,08,11,17.80
2014,07,07,08,12,17.80
2014,07,07,08,13,17.90
2014,07,07,08,14,17.90
2014,07,07,08,15,17.90
2014,07,07,08,16,18.00
2014,07,07,08,17,18.00
2014,07,07,08,18,18.10
2014,07,07,08,19,18.10
2014,07,07,08,20,18.20
2014,07,07,08,21,18.20
2014,07,07,08,22,18.30
2014,07,07,08,23,18.30
2014,07,07,08,24,18.40
2014,07,07,08,25,18.40
2014,07,07,08,26,18.50
2014,07,07,08,27,18.50
2014,07,07,08,28,18.50
2014,07,07,08,29,18.60
2014,07,07,08,30,18.60
2014,07,07,08,31,18.70
2014,07,07,08,32,18.70
2014,07,07,08,33,18.80
2014,07,07,08,34,18.80
2014,07,07,08,35,18.80
2014,07,07,08,36,18.80
2014,07,07,08,37,18.80
2014,07,07,08,38,18.80
2014,07,07,08,39,18.90
2014,07,07,08,40,18.90
2014,07,07,08,41,18.90
2014,07,07,08,42,18.90
2014,07,07,08,43,18.90
2014,07,07,08,44,18.90
2014,07,07,08,45,18.80
2014,07,07,08,46,18.80
2014,07,07,08,47,18.80
2014,07,07,08,48,18.80
2014,07,07,08,49,18.70
2014,07,07,08,50,18.70
2014,07,07,08,51,18.70
2014,07,07,08,52,18.60
2014,07,07,08,53,18.60
2014,07,07,08,54,18.60
2014,07,07,08,55,18.60
2014,07,07,08,56,18.50
2014,07,07,08,57,18.50
2014,07,07,08,58,18.40
2014,07,07,08,59,18.40
2014,07,07,09,00,18.40
2014,07,07,09,01,18.40
2014,07,07,09,02,18.40
2014,07,07,09,03,18.40
2014,07,07,09,04,18.40
2014,07,07,09,05,18.40
2014,07,07,09,06,18.40
2014,07,07,09,07,18.50
2014,07,07,09,08,18.50
2014,07,07,09,09,18.50
2014,07,07,09,10,18.50
2014,07,07,09,11,18.60
2014,07,07,09,12,18.60
2014,07,07,09,13,18.60
2014,07,07,09,14,18.50
2014,07,07,09,15,18.50
2014,07,07,09,16,18.50
2014,07,07,09,17,18.50
2014,07,07,09,18,18.50
2014,07,07,09,19,18.50
2014,07,07,09,20,18.50
2014,07,07,09,21,18.60
2014,07,07,09,22,18.60
2014,07,07,09,23,18.60
2014,07,07,09,24,18.70
2014,07,07,09,25,18.70
2014,07,07,09,26,18.70
2014,07,07,09,27,18.80
2014,07,07,09,28,18.80
2014,07,07,09,29,18.80
2014,07,07,09,30,18.90
2014,07,07,09,31,18.90
2014,07,07,09,32,19.00
2014,07,07,09,33,19.00
2014,07,07,09,34,19.00
2014,07,07,09,35,19.10
2014,07,07,09,36,19.00
2014,07,07,09,37,19.00
2014,07,07,09,38,19.00
2014,07,07,09,39,19.00
2014,07,07,09,40,19.00
2014,07,07,09,41,19.00
2014,07,07,09,42,19.10
2014,07,07,09,43,19.10
2014,07,07,09,44,19.10
2014,07,07,09,45,19.20
2014,07,07,09,46,19.20
2014,07,07,09,47,19.30
2014,07,07,09,48,19.30
2014,07,07,09,49,19.30
2014,07,07,09,50,19.30
2014,07,07,09,51,19.30
2014,07,07,09,52,19.20
2014,07,07,09,53,19.20
2014,07,07,09,54,19.30
2014,07,07,09,55,19.30
2014,07,07,09,56,19.30
2014,07,07,09,57,19.30
2014,07,07,09,58,19.30
2014,07,07,09,59,19.30
2014,07,07,10,00,19.30
2014,07,07,10,01,19.30
2014,07,07,10,02,19.40
2014,07,07,10,03,19.50
2014,07,07,10,04,19.50
2014,07,07,10,05,19.50
2014,07,07,10,06,19.60
2014,07,07,10,07,19.60
2014,07,07,10,08,19.70
2014,07,07,10,09,19.70
2014,07,07,10,10,19.70
2014,07,07,10,11,19.70
2014,07,07,10,12,19.70
2014,07,07,10,13,19.70
2014,07,07,10,14,19.70
2014,07,07,10,15,19.60
2014,07,07,10,16,19.60
2014,07,07,10,17,19.60
2014,07,07,10,18,19.60
2014,07,07,10,19,19.60
2014,07,07,10,20,19.60
2014,07,07,10,21,19.60
2014,07,07,10,22,19.60
2014,07,07,10,23,19.60
2014,07,07,10,24,19.60
2014,07,07,10,25,19.50
2014,07,07,10,26,19.50
2014,07,07,10,27,19.50
2014,07,07,10,28,19.40
2014,07,07,10,29,19.40
2014,07,07,10,30,19.40
2014,07,07,10,31,19.40
2014,07,07,10,32,19.40
2014,07,07,10,33,19.40
2014,07,07,10,34,19.50
2014,07,07,10,35,19.40
2014,07,07,10,36,19.40
2014,07,07,10,37,19.40
2014,07,07,10,38,19.40
2014,07,07,10,39,19.30
2014,07,07,10,40,19.30
2014,07,07,10,41,19.30
2014,07,07,10,42,19.30
2014,07,07,10,43,19.30
2014,07,07,10,44,19.30
2014,07,07,10,45,19.30
2014,07,07,10,46,19.30
2014,07,07,10,47,19.30
2014,07,07,10,48,19.30
2014,07,07,10,49,19.40
2014,07,07,10,50,19.40
2014,07,07,10,51,19.50
2014,07,07,10,52,19.60
2014,07,07,10,53,19.70
2014,07,07,10,54,19.70
2014,07,07,10,55,19.80
2014,07,07,10,56,20.00
2014,07,07,10,57,20.10
2014,07,07,10,58,20.30
2014,07,07,10,59,20.30
2014,07,07,11,00,20.30
2014,07,07,11,01,20.30
2014,07,07,11,02,20.30
2014,07,07,11,03,20.30
2014,07,07,11,04,20.30
2014,07,07,11,05,20.30
2014,07,07,11,06,20.30
2014,07,07,11,07,20.30
2014,07,07,11,08,20.30
2014,07,07,11,09,20.30
2014,07,07,11,10,20.30
2014,07,07,11,11,20.30
2014,07,07,11,12,20.30
2014,07,07,11,13,20.30
2014,07,07,11,14,20.30
2014,07,07,11,15,20.30
2014,07,07,11,16,20.30
2014,07,07,11,17,20.30
2014,07,07,11,18,20.30
2014,07,07,11,19,20.30
2014,07,07,11,20,20.30
2014,07,07,11,21,20.20
2014,07,07,11,22,20.20
2014,07,07,11,23,20.30
2014,07,07,11,24,20.30
2014,07,07,11,25,20.30
2014,07,07,11,26,20.30
2014,07,07,11,27,20.40
2014,07,07,11,28,20.50
2014,07,07,11,29,20.60
2014,07,07,11,30,20.60
2014,07,07,11,31,20.70
2014,07,07,11,32,20.70
2014,07,07,11,33,20.70
2014,07,07,11,34,20.60
2014,07,07,11,35,20.60
2014,07,07,11,36,20.50
2014,07,07,11,37,20.50
2014,07,07,11,38,20.40
2014,07,07,11,39,20.40
2014,07,07,11,40,20.40
2014,07,07,11,41,20.40
2014,07,07,11,42,20.40
2014,07,07,11,43,20.40
2014,07,07,11,44,20.40
2014,07,07,11,45,20.40
2014,07,07,11,46,20.50
2014,07,07,11,47,20.60
2014,07,07,11,48,20.60
2014,07,07,11,49,20.70
2014,07,07,11,50,20.70
2014,07,07,11,51,20.80
2014,07,07,11,52,20.90
2014,07,07,11,53,20.90
2014,07,07,11,54,21.00
2014,07,07,11,55,21.10
2014,07,07,11,56,21.30
2014,07,07,11,57,21.50
2014,07,07,11,58,21.70
2014,07,07,11,59,21.80
2014,07,07,12,00,21.90
2014,07,07,12,01,22.00
2014,07,07,12,02,22.00
2014,07,07,12,03,21.90
2014,07,07,12,04,21.90
2014,07,07,12,05,21.80
2014,07,07,12,06,21.80
2014,07,07,12,07,21.80
2014,07,07,12,08,21.80
2014,07,07,12,09,21.80
2014,07,07,12,10,21.80
2014,07,07,12,11,21.80
2014,07,07,12,12,21.80
2014,07,07,12,13,21.80
2014,07,07,12,14,21.80
2014,07,07,12,15,21.80
2014,07,07,12,16,21.80
2014,07,07,12,17,21.80
2014,07,07,12,18,21.80
2014,07,07,12,19,21.90
2014,07,07,12,20,22.00
2014,07,07,12,21,22.00
2014,07,07,12,22,22.10
2014,07,07,12,23,22.20
2014,07,07,12,24,22.30
2014,07,07,12,25,22.40
2014,07,07,12,26,22.40
2014,07,07,12,27,22.30
2014,07,07,12,28,22.20
2014,07,07,12,29,22.10
2014,07,07,12,30,22.00
2014,07,07,12,31,22.10
2014,07,07,12,32,22.00
2014,07,07,12,33,22.10
2014,07,07,12,34,22.10
2014,07,07,12,35,22.10
2014,07,07,12,36,22.10
2014,07,07,12,37,22.10
2014,07,07,12,38,22.10
2014,07,07,12,39,22.10
2014,07,07,12,40,22.20
2014,07,07,12,41,22.20
2014,07,07,12,42,22.20
2014,07,07,12,43,22.30
2014,07,07,12,44,22.40
2014,07,07,12,45,22.40
2014,07,07,12,46,22.40
2014,07,07,12,47,22.50
2014,07,07,12,48,22.50
2014,07,07,12,49,22.60
2014,07,07,12,50,22.60
2014,07,07,12,51,22.60
2014,07,07,12,52,22.70
2014,07,07,12,53,22.70
2014,07,07,12,54,22.70
2014,07,07,12,55,22.70
2014,07,07,12,56,22.60
2014,07,07,12,57,22.50
2014,07,07,12,58,22.40
2014,07,07,12,59,22.30
2014,07,07,13,00,22.10
2014,07,07,13,01,22.00
2014,07,07,13,02,21.90
2014,07,07,13,03,21.80
2014,07,07,13,04,21.80
2014,07,07,13,05,21.80
2014,07,07,13,06,21.90
2014,07,07,13,07,22.00
2014,07,07,13,08,22.10
2014,07,07,13,09,22.20
2014,07,07,13,10,22.30
2014,07,07,13,11,22.30
2014,07,07,13,12,22.40
2014,07,07,13,13,22.50
2014,07,07,13,14,22.60
2014,07,07,13,15,22.70
2014,07,07,13,16,22.70
2014,07,07,13,17,22.80
2014,07,07,13,18,22.80
2014,07,07,13,19,22.90
2014,07,07,13,20,23.10
2014,07,07,13,21,23.10
2014,07,07,13,22,23.20
2014,07,07,13,23,23.20
2014,07,07,13,24,23.20
2014,07,07,13,25,23.20
2014,07,07,13,26,23.10
2014,07,07,13,27,23.10
2014,07,07,13,28,23.10
2014,07,07,13,29,23.10
2014,07,07,13,30,23.10
2014,07,07,13,31,23.10
2014,07,07,13,32,23.20
2014,07,07,13,33,23.30
2014,07,07,13,34,23.40
2014,07,07,13,35,23.50
2014,07,07,13,36,23.60
2014,07,07,13,37,23.80
2014,07,07,13,38,23.80
2014,07,07,13,39,23.80
2014,07,07,13,40,23.80
2014,07,07,13,41,23.70
2014,07,07,13,42,23.70
2014,07,07,13,43,23.60
2014,07,07,13,44,23.60
2014,07,07,13,45,23.50
2014,07,07,13,46,23.40
2014,07,07,13,47,23.40
2014,07,07,13,48,23.30
2014,07,07,13,49,23.30
2014,07,07,13,50,23.30
2014,07,07,13,51,23.30
2014,07,07,13,52,23.30
2014,07,07,13,53,23.30
2014,07,07,13,54,23.20
2014,07,07,13,55,23.20
2014,07,07,13,56,23.20
2014,07,07,13,57,23.30
2014,07,07,13,58,23.30
2014,07,07,13,59,23.30
2014,07,07,14,00,23.30
2014,07,07,14,01,23.20
2014,07,07,14,02,23.10
2014,07,07,14,03,23.00
2014,07,07,14,04,22.90
2014,07,07,14,05,22.90
2014,07,07,14,06,23.00
2014,07,07,14,07,23.00
2014,07,07,14,08,23.10
2014,07,07,14,09,23.10
2014,07,07,14,10,23.10
2014,07,07,14,11,23.20
2014,07,07,14,12,23.30
2014,07,07,14,13,23.30
2014,07,07,14,14,23.40
2014,07,07,14,15,23.40
2014,07,07,14,16,23.50
2014,07,07,14,17,23.50
2014,07,07,14,18,23.50
2014,07,07,14,19,23.60
2014,07,07,14,20,23.60
2014,07,07,14,21,23.60
2014,07,07,14,22,23.60
2014,07,07,14,23,23.60
2014,07,07,14,24,23.50
2014,07,07,14,25,23.50
2014,07,07,14,26,23.50
2014,07,07,14,27,23.50
2014,07,07,14,28,23.40
2014,07,07,14,29,23.30
2014,07,07,14,30,23.30
2014,07,07,14,31,23.20
2014,07,07,14,32,23.20
2014,07,07,14,33,23.30
2014,07,07,14,34,23.20
2014,07,07,14,35,23.20
2014,07,07,14,36,23.20
2014,07,07,14,37,23.20
2014,07,07,14,38,23.20
2014,07,07,14,39,23.20
2014,07,07,14,40,23.20
2014,07,07,14,41,23.20
2014,07,07,14,42,23.20
2014,07,07,14,43,23.20
2014,07,07,14,44,23.20
2014,07,07,14,45,23.20
2014,07,07,14,46,23.30
2014,07,07,14,47,23.30
2014,07,07,14,48,23.30
2014,07,07,14,49,23.40
2014,07,07,14,50,23.50
2014,07,07,14,51,23.50
2014,07,07,14,52,23.50
2014,07,07,14,53,23.60
2014,07,07,14,54,23.60
2014,07,07,14,55,23.70
2014,07,07,14,56,23.60
2014,07,07,14,57,23.60
2014,07,07,14,58,23.50
2014,07,07,14,59,23.50
2014,07,07,15,00,23.60
2014,07,07,15,01,23.60
2014,07,07,15,02,23.60
2014,07,07,15,03,23.60
2014,07,07,15,04,23.60
2014,07,07,15,05,23.50
2014,07,07,15,06,23.50
2014,07,07,15,07,23.50
2014,07,07,15,08,23.50
2014,07,07,15,09,23.60
2014,07,07,15,10,23.60
2014,07,07,15,11,23.60
2014,07,07,15,12,23.60
2014,07,07,15,13,23.60
2014,07,07,15,14,23.60
2014,07,07,15,15,23.60
2014,07,07,15,16,23.70
2014,07,07,15,17,23.70
2014,07,07,15,18,23.70
2014,07,07,15,19,23.70
2014,07,07,15,20,23.70
2014,07,07,15,21,23.80
2014,07,07,15,22,23.80
2014,07,07,15,23,23.80
2014,07,07,15,24,23.80
2014,07,07,15,25,23.80
2014,07,07,15,26,23.90
2014,07,07,15,27,23.90
2014,07,07,15,28,24.00
2014,07,07,15,29,24.00
2014,07,07,15,30,24.00
2014,07,07,15,31,23.90
2014,07,07,15,32,23.90
2014,07,07,15,33,23.80
2014,07,07,15,34,23.80
2014,07,07,15,35,23.80
2014,07,07,15,36,23.80
2014,07,07,15,37,23.90
2014,07,07,15,38,23.90
2014,07,07,15,39,23.90
2014,07,07,15,40,23.90
2014,07,07,15,41,23.90
2014,07,07,15,42,24.00
2014,07,07,15,43,24.10
2014,07,07,15,44,24.20
2014,07,07,15,45,24.20
2014,07,07,15,46,24.10
2014,07,07,15,47,24.10
2014,07,07,15,48,24.10
2014,07,07,15,49,24.00
2014,07,07,15,50,24.00
2014,07,07,15,51,24.00
2014,07,07,15,52,24.00
2014,07,07,15,53,24.00
2014,07,07,15,54,24.00
2014,07,07,15,55,24.00
2014,07,07,15,56,24.00
2014,07,07,15,57,24.00
2014,07,07,15,58,23.90
2014,07,07,15,59,23.90
2014,07,07,16,00,24.00
2014,07,07,16,01,24.00
2014,07,07,16,02,24.00
2014,07,07,16,03,24.00
2014,07,07,16,04,23.90
2014,07,07,16,05,23.80
2014,07,07,16,06,23.80
2014,07,07,16,07,23.80
2014,07,07,16,08,23.80
2014,07,07,16,09,23.80
2014,07,07,16,10,23.80
2014,07,07,16,11,23.80
2014,07,07,16,12,23.80
2014,07,07,16,13,23.80
2014,07,07,16,14,23.80
2014,07,07,16,15,23.80
2014,07,07,16,16,23.90
2014,07,07,16,17,23.90
2014,07,07,16,18,24.00
2014,07,07,16,19,24.00
2014,07,07,16,20,24.00
2014,07,07,16,21,24.10
2014,07,07,16,22,24.10
2014,07,07,16,23,24.10
2014,07,07,16,24,24.10
2014,07,07,16,25,24.10
2014,07,07,16,26,24.10
2014,07,07,16,27,24.10
2014,07,07,16,28,24.10
2014,07,07,16,29,24.10
2014,07,07,16,30,24.10
2014,07,07,16,31,24.10
2014,07,07,16,32,24.10
2014,07,07,16,33,24.10
2014,07,07,16,34,24.20
2014,07,07,16,35,24.20
2014,07,07,16,36,24.30
2014,07,07,16,37,24.30
2014,07,07,16,38,24.30
2014,07,07,16,39,24.40
2014,07,07,16,40,24.40
2014,07,07,16,41,24.40
2014,07,07,16,42,24.40
2014,07,07,16,43,24.40
2014,07,07,16,44,24.40
2014,07,07,16,45,24.40
2014,07,07,16,46,24.40
2014,07,07,16,47,24.30
2014,07,07,16,48,24.30
2014,07,07,16,49,24.30
2014,07,07,16,50,24.30
2014,07,07,16,51,24.30
2014,07,07,16,52,24.30
2014,07,07,16,53,24.40
2014,07,07,16,54,24.50
2014,07,07,16,55,24.50
2014,07,07,16,56,24.50
2014,07,07,16,57,24.60
2014,07,07,16,58,24.60
2014,07,07,16,59,24.60
2014,07,07,17,00,24.60
2014,07,07,17,01,24.60
2014,07,07,17,02,24.70
2014,07,07,17,03,24.70
2014,07,07,17,04,24.70
2014,07,07,17,05,24.70
2014,07,07,17,06,24.70
2014,07,07,17,07,24.70
2014,07,07,17,08,24.70
2014,07,07,17,09,24.70
2014,07,07,17,10,24.70
2014,07,07,17,11,24.70
2014,07,07,17,12,24.80
2014,07,07,17,13,24.80
2014,07,07,17,14,24.80
2014,07,07,17,15,24.80
2014,07,07,17,16,24.80
2014,07,07,17,17,24.80
2014,07,07,17,18,24.80
2014,07,07,17,19,24.80